Theta_e
317 318 318 320 323 323 330 329 329 335 331 323 323 328 324 326 332 332 335 335 336 333 333 335 335 336 340 342 339 339 339 342 345 345 347 341 335 335 334 333 334 333 333 331 331 334 336 335 331 330 333 334 333 331 332 333 333 332 332 332 332 332 332 332 331 332 334 334 333 334 333 334 335 335 334 333 333 333 334 334 334 334 334 333 332 329 325 324 323 323 322 319 316 314 319 324 326
317 319 319 322 323 324 334 331 324 330 332 324 321 324 323 328 333 331 335 336 335 334 336 337 335 335 337 339 338 342 340 337 339 341 340 335 333 334 334 334 334 334 333 331 331 334 336 334 328 327 330 332 334 332 333 333 332 332 332 332 333 333 332 331 331 332 334 334 334 334 334 334 334 334 334 334 334 334 334 334 334 334 333 333 332 330 328 327 325 323 323 321 317 315 317 322 324
317 319 320 323 325 325 334 332 322 325 327 321 317 321 327 334 335 332 336 335 334 336 339 337 337 334 335 341 341 344 342 336 336 336 334 333 332 332 335 335 333 333 331 329 331 334 334 334 331 330 331 333 334 333 333 332 331 332 332 333 332 333 333 332 331 333 334 334 334 335 335 334 334 334 334 332 333 333 333 333 334 334 333 333 333 331 330 329 327 324 324 322 319 315 316 322 324
318 319 321 323 328 331 335 329 325 327 323 321 319 322 332 335 335 333 335 335 337 338 336 336 338 333 336 344 340 341 340 337 336 335 333 332 331 333 335 333 331 332 332 330 330 333 333 333 332 332 333 335 335 333 331 330 331 332 333 332 331 331 331 331 332 333 334 334 334 334 334 333 333 334 334 332 331 331 331 332 333 333 333 333 332 331 330 327 326 324 324 323 322 317 316 322 324
320 319 321 322 327 334 331 325 332 330 319 324 323 323 334 334 334 334 334 336 337 339 336 336 337 331 336 341 339 341 340 337 336 335 333 331 331 332 333 332 332 334 335 332 329 332 333 332 333 333 333 334 335 333 331 330 330 331 332 331 331 331 331 332 332 333 334 333 334 334 333 333 332 333 334 333 331 329 331 332 332 333 333 332 330 329 329 327 326 325 324 323 322 318 316 321 324
321 320 323 324 326 328 328 325 329 325 317 327 324 324 335 332 334 334 334 336 336 339 337 335 335 335 339 338 337 339 337 337 336 334 332 330 332 332 332 333 334 336 336 333 329 332 332 332 334 333 333 333 334 333 333 332 331 331 331 330 330 332 332 332 332 333 333 332 333 334 334 333 333 333 333 333 330 328 331 332 331 331 331 331 331 329 328 327 324 321 320 319 320 318 315 320 323
320 324 330 330 330 326 328 326 325 324 319 324 323 326 334 330 334 335 334 336 335 335 334 335 335 338 340 338 339 337 335 336 335 332 331 331 332 332 333 334 335 335 334 332 330 331 332 333 334 333 333 333 333 332 332 331 331 331 331 330 330 332 331 331 331 331 332 331 333 334 334 334 334 334 333 331 328 327 330 331 330 330 330 329 329 328 327 324 321 317 315 315 316 317 315 319 324
320 325 332 329 333 332 328 327 328 330 323 320 323 327 331 331 334 334 334 336 334 333 333 335 333 337 337 339 341 337 335 336 334 332 331 332 332 331 332 335 335 334 334 332 329 331 332 333 334 334 334 334 332 331 331 330 331 332 331 330 330 331 331 331 331 331 331 332 333 334 334 334 334 334 333 331 328 329 331 330 329 329 328 327 327 326 324 322 318 315 313 313 315 316 315 319 323
321 324 331 328 332 334 333 331 325 325 323 321 323 325 328 330 332 331 332 331 332 333 333 334 333 338 337 339 340 336 335 334 332 332 331 332 331 330 331 335 335 334 334 332 328 330 332 333 334 334 334 333 331 330 332 331 330 331 331 330 329 330 331 332 332 331 331 332 333 333 334 334 334 334 333 331 329 330 331 330 329 328 328 327 326 324 323 320 317 315 313 312 314 315 314 318 321
324 325 330 333 333 330 334 335 324 320 322 322 322 325 327 327 330 329 329 328 331 334 334 334 334 339 339 340 340 336 334 332 331 331 331 331 331 331 331 335 335 334 334 332 329 330 332 333 334 334 333 332 330 329 332 331 329 329 331 331 331 331 332 332 332 331 331 332 332 333 333 333 333 332 332 331 330 330 330 329 328 327 328 327 325 324 324 321 317 315 313 313 314 314 314 316 320
329 334 331 331 331 329 332 329 321 321 321 322 322 323 326 327 329 326 327 327 332 336 333 333 333 337 340 341 341 337 334 332 330 330 331 332 331 331 332 334 334 334 333 331 328 330 332 332 333 334 333 332 329 327 328 329 328 329 331 332 333 332 332 332 332 331 331 331 332 332 332 332 332 331 330 330 330 330 329 328 328 327 326 325 324 323 321 319 318 317 316 314 314 314 313 314 319
328 338 335 328 331 332 333 326 318 324 325 325 323 323 325 328 329 326 327 327 334 337 333 334 329 334 340 342 341 335 334 332 329 329 331 331 331 331 331 333 333 333 332 330 328 329 331 332 332 333 333 332 329 327 326 327 328 330 331 332 333 332 332 332 331 330 330 331 332 332 331 331 330 330 329 328 330 329 329 329 327 326 324 324 324 322 319 319 319 318 318 317 316 315 315 315 319
330 333 332 329 335 332 333 329 321 329 331 326 323 324 325 327 329 326 325 326 332 334 332 332 326 333 342 341 339 335 335 333 330 330 331 331 331 331 331 332 333 332 331 330 328 328 331 331 331 331 331 330 328 327 327 327 328 331 331 331 332 331 331 330 330 330 330 331 331 331 331 330 330 329 328 328 329 329 328 327 325 325 325 325 325 323 321 320 319 319 319 319 318 317 318 317 319
331 330 327 329 336 332 333 331 329 334 328 325 325 324 325 327 327 324 328 331 331 331 329 327 326 338 343 339 339 338 336 333 331 330 331 331 331 331 331 332 332 331 330 330 329 327 329 330 331 331 330 329 328 327 326 327 328 330 332 332 331 329 329 328 328 328 328 329 329 330 330 330 329 329 328 327 328 327 326 325 325 325 323 322 322 321 320 320 320 320 319 319 319 319 319 319 319
329 332 328 330 335 334 336 331 331 332 323 324 326 323 327 326 325 326 330 334 332 328 326 325 326 332 339 342 344 338 335 333 331 330 332 331 331 331 331 331 332 331 330 331 330 327 328 329 330 330 330 329 328 327 325 327 329 329 331 331 330 328 327 326 327 327 327 328 328 329 329 329 330 328 327 327 327 326 326 326 325 322 320 319 319 319 319 320 320 320 320 320 320 320 320 320 320
329 337 330 327 333 331 333 331 327 327 321 324 325 323 328 325 326 326 324 329 330 326 326 327 327 330 336 344 344 336 334 334 331 331 331 331 331 331 331 331 332 332 332 332 330 329 329 328 328 328 327 326 327 326 325 327 329 329 330 330 329 328 326 326 327 328 327 328 328 328 328 328 329 328 327 327 327 326 327 327 324 320 319 319 319 319 319 319 319 319 320 319 319 319 319 319 319
329 338 330 326 335 330 326 327 325 324 321 324 325 325 327 325 325 323 320 327 329 327 330 329 328 335 341 341 338 334 335 333 331 331 331 331 331 331 331 330 331 332 332 332 330 330 331 329 329 327 327 326 326 326 324 327 329 329 330 329 329 328 327 326 327 328 327 328 328 327 327 327 328 328 327 327 326 325 326 326 323 320 319 319 319 319 319 319 319 319 319 319 319 319 318 319 319
327 336 330 328 337 332 324 322 321 323 322 324 324 324 327 326 325 323 321 325 327 328 331 331 330 334 337 336 335 334 334 332 331 331 330 330 331 331 331 331 330 330 331 331 330 331 332 331 331 329 328 328 327 326 325 325 328 330 330 329 329 328 327 326 326 327 328 327 327 327 326 326 327 327 327 326 325 325 324 324 323 321 319 319 319 319 319 319 319 319 319 319 319 319 320 320 321
330 333 329 333 338 328 321 319 318 319 320 321 321 322 325 326 325 323 323 324 326 328 329 332 334 334 336 334 334 334 333 333 332 330 329 330 331 331 331 331 330 328 330 331 329 331 333 333 333 330 330 329 328 328 327 325 326 329 330 329 329 328 328 326 325 325 327 327 326 325 324 325 325 325 325 325 325 324 323 323 323 321 320 319 319 319 319 319 319 319 319 319 319 320 322 322 322
334 332 331 339 335 321 317 317 317 316 318 320 319 319 322 323 324 323 324 324 325 328 329 333 334 335 338 335 333 333 333 333 332 331 329 329 330 331 330 331 330 327 329 331 328 330 332 333 334 331 331 331 329 329 330 327 325 325 328 329 329 328 328 327 325 324 326 326 324 324 325 326 326 325 325 324 324 324 323 323 323 321 320 320 319 319 319 319 319 319 318 319 320 321 322 323 323
333 330 335 337 326 319 316 315 316 316 317 319 318 319 319 319 321 323 324 324 325 326 327 333 333 334 338 336 333 333 332 332 332 331 330 329 328 329 330 330 331 327 327 331 329 328 330 333 334 332 331 331 330 330 331 329 327 325 325 327 328 328 327 327 326 323 325 326 324 325 327 328 328 327 326 324 323 323 323 322 322 320 320 320 319 319 319 319 319 319 319 320 321 321 322 322 323
330 328 335 332 321 318 315 314 316 316 316 318 318 318 317 317 318 321 323 324 328 324 322 328 329 331 336 335 333 333 332 331 331 331 330 330 328 328 328 329 330 329 327 330 330 328 328 330 333 333 332 332 331 331 331 330 330 326 323 325 326 328 327 327 326 323 324 325 326 328 329 329 329 328 327 327 325 323 323 322 320 319 319 319 319 319 319 319 321 322 321 320 322 322 323 322 321
332 330 331 328 321 317 314 315 315 315 316 317 317 316 316 317 317 319 320 323 327 323 321 326 326 330 335 334 334 334 333 331 331 331 331 330 329 327 326 327 329 330 327 327 330 330 327 328 332 333 332 332 331 332 332 330 329 326 324 325 326 326 327 326 325 323 323 324 327 329 329 329 329 328 327 327 327 324 324 323 321 320 320 320 319 318 319 320 321 323 323 322 322 323 323 321 319
333 334 331 326 320 316 316 316 315 315 316 315 316 315 316 317 317 318 320 322 324 321 319 323 324 328 335 334 334 334 333 332 331 331 331 331 331 328 326 326 327 329 328 326 329 331 329 327 329 331 331 332 332 332 331 329 329 326 326 327 326 326 326 325 323 325 325 324 326 328 329 329 329 328 326 326 327 325 325 325 325 324 323 322 321 319 319 320 320 322 324 323 324 323 322 321 321
332 335 331 323 318 317 318 317 315 315 315 316 316 316 317 317 317 317 319 322 323 319 317 324 327 328 335 336 334 333 332 332 332 332 332 331 331 330 327 326 327 328 329 327 328 330 330 328 327 329 330 331 331 331 331 329 328 327 327 328 327 326 326 324 323 325 327 325 324 327 328 328 328 327 326 326 325 325 326 326 326 326 325 324 324 321 320 321 320 321 323 324 324 323 322 322 322
334 335 329 320 318 317 318 319 316 315 316 318 317 317 319 317 316 317 318 320 320 320 321 328 331 330 334 336 335 333 332 332 332 332 332 332 331 331 330 328 327 328 329 328 327 329 329 329 329 328 328 329 330 330 330 328 328 327 327 328 328 327 327 325 325 326 327 326 324 326 328 328 328 327 326 325 325 326 327 326 326 326 326 326 325 323 321 321 320 320 322 323 323 323 322 322 321
332 333 328 320 320 316 318 321 317 317 318 319 318 319 321 317 315 317 319 319 317 319 322 325 330 333 332 335 336 332 332 332 332 332 332 332 332 331 332 330 329 328 328 329 328 328 328 329 329 329 327 327 328 329 329 328 327 327 327 327 327 327 327 326 326 326 327 327 325 325 327 328 328 327 326 326 326 326 326 326 326 326 326 326 324 322 322 321 320 321 322 322 323 323 322 322 322
329 329 325 321 324 320 318 321 319 318 320 321 319 320 323 320 316 316 318 321 318 318 323 324 326 330 330 334 336 333 332 333 332 332 332 332 332 332 332 332 331 329 328 329 329 329 328 328 328 329 329 327 326 327 328 328 327 327 326 327 327 327 327 327 327 326 327 327 327 326 326 327 328 327 326 327 327 326 326 326 327 327 326 325 322 321 321 320 320 322 323 322 323 323 322 323 323
330 331 329 328 328 326 322 320 320 319 320 323 321 324 326 321 319 317 316 320 321 320 323 324 324 325 327 331 334 334 332 333 333 333 333 333 333 333 332 332 332 330 329 329 329 329 329 328 328 329 330 328 326 325 327 328 328 327 326 326 327 327 327 327 327 327 327 327 327 327 326 326 326 327 326 327 327 327 326 325 326 326 325 323 320 320 320 320 320 322 323 323 323 322 322 323 323
333 332 334 336 335 334 328 320 322 320 321 324 324 331 335 328 324 321 318 318 319 322 321 322 324 323 324 326 331 333 332 331 333 333 333 333 333 334 333 332 332 332 331 330 329 329 329 328 328 329 329 329 327 324 324 327 328 328 326 324 325 326 327 327 327 327 327 327 327 327 327 326 326 326 327 327 327 327 327 325 325 324 322 320 320 320 321 321 320 320 322 322 322 323 323 323 323
335 332 334 338 339 343 336 323 322 320 321 326 328 332 335 332 330 328 323 319 317 320 321 320 323 324 324 324 327 331 330 330 333 334 334 334 334 334 334 333 333 333 332 331 330 330 330 329 328 329 329 329 328 326 325 325 326 327 326 323 322 324 325 327 328 328 327 327 327 328 327 327 326 326 326 327 327 327 327 326 324 322 320 320 320 321 321 321 321 320 321 323 323 324 324 324 323
333 336 338 338 339 343 340 327 322 321 321 324 329 333 334 332 332 330 324 320 317 319 320 320 321 323 324 324 325 328 330 329 331 334 334 334 334 334 334 334 334 333 333 332 332 331 331 330 329 329 328 329 328 328 327 325 325 325 325 322 321 320 321 323 325 326 328 328 328 328 327 327 326 326 326 327 327 327 326 325 323 322 322 322 321 322 323 323 323 322 323 324 325 325 325 325 324
333 338 340 340 339 337 336 330 323 322 321 321 327 335 338 335 332 332 326 319 319 319 320 320 320 321 323 324 324 326 330 331 330 332 334 334 334 335 334 335 335 334 333 333 333 332 331 330 330 329 328 328 329 328 328 326 325 325 325 323 323 322 320 319 320 322 325 327 328 328 328 327 326 326 325 326 326 326 326 324 322 323 324 323 323 324 324 324 324 324 324 325 325 325 326 325 325
335 337 339 339 338 335 335 334 326 323 322 322 326 331 335 334 332 334 327 319 320 320 319 320 319 320 322 323 324 326 330 334 332 330 332 335 334 335 335 335 335 335 335 334 334 333 332 331 331 330 329 328 328 328 328 327 326 326 325 325 324 324 323 320 317 318 320 323 326 328 327 326 326 326 325 324 325 325 325 323 322 324 325 324 325 326 325 325 325 325 325 325 325 325 325 325 325
336 337 339 337 335 334 335 334 329 324 323 325 327 328 329 329 330 331 327 319 319 320 319 320 320 320 322 323 324 327 329 333 331 328 331 334 334 335 335 335 335 334 335 334 334 334 333 332 332 331 330 329 328 328 328 327 327 326 326 326 326 325 325 323 321 319 318 318 321 324 325 325 325 325 325 324 322 323 323 322 321 323 325 325 326 327 326 326 326 325 325 325 325 325 325 324 324
335 335 336 336 334 334 333 331 328 324 324 326 327 327 327 327 327 327 326 321 318 319 319 319 319 320 321 321 324 326 329 331 328 327 330 332 334 335 335 335 335 334 334 334 334 334 334 333 332 332 331 330 329 328 328 327 327 327 327 327 327 326 326 325 324 323 321 319 318 320 322 323 324 324 324 323 321 320 320 320 319 322 325 326 326 326 326 326 326 326 325 325 325 325 325 324 324
333 332 333 335 335 335 332 328 326 323 324 325 325 327 327 326 326 324 324 322 319 319 319 318 317 318 318 319 322 326 328 328 325 326 329 330 332 334 335 335 334 334 334 334 334 333 334 333 333 332 332 331 330 328 328 328 327 328 327 327 327 327 327 326 326 325 324 323 320 319 320 322 323 323 323 323 322 320 318 318 319 321 324 327 327 326 327 326 326 326 325 325 325 325 325 324 324
331 330 334 336 335 334 329 323 323 322 323 328 328 326 326 325 325 325 325 324 321 319 317 317 317 316 317 317 321 325 326 325 324 325 326 329 331 333 334 334 334 334 333 333 334 333 333 333 333 333 332 332 331 330 329 328 328 327 327 327 328 327 327 327 327 326 325 324 323 322 321 322 322 322 323 323 323 321 319 318 319 321 323 326 327 327 327 327 326 326 326 326 325 325 325 324 323
331 330 333 337 337 334 327 321 322 322 324 333 334 328 327 327 326 328 328 327 325 322 319 319 319 318 317 317 318 321 323 325 327 325 324 327 330 331 333 334 334 334 334 334 333 333 333 333 333 332 332 332 331 331 330 329 329 328 327 327 327 328 327 327 327 326 326 326 325 324 323 323 323 324 324 324 324 323 322 320 320 321 322 324 326 327 327 327 327 326 326 326 326 325 325 324 323
331 331 332 338 338 335 332 325 322 323 325 330 330 326 325 324 323 324 325 326 326 325 323 321 321 321 320 319 318 318 320 323 326 325 323 325 328 330 332 333 334 334 334 334 333 333 333 333 333 332 332 332 332 332 331 330 330 329 328 328 327 327 327 328 328 327 327 326 326 325 325 325 325 325 325 325 325 325 324 323 321 322 322 324 325 326 327 327 327 327 326 326 326 325 325 324 324
332 332 333 337 335 333 334 328 322 323 327 325 323 328 330 327 326 324 322 323 322 323 324 323 322 322 322 322 321 319 319 319 322 324 323 322 326 329 330 332 333 333 334 334 334 334 333 333 333 332 332 332 332 332 331 331 330 330 329 329 328 328 328 329 329 328 328 327 327 327 326 326 326 326 326 326 326 326 325 325 323 323 322 323 325 326 327 327 327 327 326 326 326 325 325 324 324
331 332 333 335 335 334 332 327 324 329 334 329 324 332 339 337 332 328 324 324 323 323 324 323 323 323 323 322 321 321 321 319 319 322 322 321 323 328 330 331 332 333 333 333 334 333 333 333 332 332 332 332 332 331 331 331 331 331 330 329 329 329 329 329 329 329 329 328 328 328 327 327 327 327 327 327 327 326 326 326 325 324 323 324 325 325 326 327 327 327 327 327 326 325 325 324 324
332 333 332 332 334 337 335 330 329 335 338 330 324 331 338 336 331 328 327 325 325 325 324 325 323 323 324 322 320 320 321 321 320 319 321 321 322 325 328 331 331 332 333 333 333 333 333 333 332 332 332 332 332 331 331 331 331 331 330 330 330 330 330 329 329 329 329 329 329 329 328 328 328 328 328 328 328 327 327 327 326 326 325 325 325 325 326 327 327 327 327 327 326 326 325 324 324
333 333 333 332 331 335 338 337 335 337 336 332 330 330 333 334 331 328 329 327 327 327 325 326 325 323 324 323 321 320 319 321 321 320 321 320 320 323 327 330 330 331 332 332 332 332 332 332 332 332 332 332 332 331 331 331 331 330 330 330 330 330 330 329 329 329 329 329 329 329 329 329 329 328 329 329 329 328 328 328 327 327 326 326 326 326 327 327 327 327 327 327 326 326 326 325 324
332 333 333 332 332 336 340 341 338 333 332 335 333 329 331 336 334 329 329 330 330 329 327 326 326 323 323 322 321 320 319 319 320 321 321 318 316 318 323 327 330 331 331 331 331 332 332 332 332 332 332 332 332 331 332 331 331 331 330 330 330 330 329 329 329 329 329 329 330 330 330 329 329 329 329 330 330 329 329 329 328 328 327 327 327 327 327 327 328 327 328 327 327 326 326 325 325
329 329 330 329 330 334 337 338 336 332 331 333 333 329 330 336 337 329 327 331 329 326 326 325 325 325 323 322 321 320 319 320 321 322 319 314 313 316 319 323 327 329 329 330 330 331 331 331 331 331 331 332 332 332 332 331 331 331 329 330 329 329 329 329 329 329 329 330 330 330 330 330 330 329 329 329 330 330 330 330 329 329 328 328 327 327 327 328 328 328 328 328 327 327 326 326 326
329 329 328 327 329 333 336 335 335 335 332 331 332 331 328 333 341 333 325 333 332 325 327 326 324 326 325 324 322 320 320 322 324 325 318 312 313 315 316 318 323 326 328 329 329 329 330 330 331 331 331 331 331 331 331 331 331 331 330 330 329 329 329 329 329 329 329 329 330 330 330 330 330 329 329 329 329 329 330 330 330 329 329 329 328 328 328 328 328 328 328 328 328 327 327 326 326
330 331 329 329 330 334 336 332 332 335 332 330 331 330 327 330 339 336 326 331 332 328 331 330 326 326 326 326 323 322 326 326 326 328 323 317 316 315 313 315 318 322 326 327 328 329 329 329 329 330 330 330 331 331 331 331 330 330 330 330 329 329 328 328 329 329 329 329 329 329 330 330 330 330 329 329 329 329 329 330 330 330 329 329 329 329 328 328 328 328 328 328 328 328 327 327 326
328 329 330 332 331 332 334 329 329 331 329 329 327 327 328 328 331 332 327 327 327 328 330 330 327 324 324 325 323 324 328 328 327 329 327 327 324 315 311 314 314 317 322 325 327 327 328 329 329 329 329 329 330 330 330 330 330 330 330 329 329 329 328 328 328 328 328 328 329 329 329 329 330 330 329 329 329 329 329 329 329 329 329 329 329 329 329 329 328 328 328 328 328 327 327 327 326
326 326 329 333 331 331 332 328 328 331 329 326 323 324 329 328 326 327 325 323 323 326 328 332 334 328 325 325 324 324 326 326 330 330 330 335 327 312 309 313 312 313 317 323 327 327 327 328 328 328 329 329 329 329 330 330 330 330 330 330 329 329 329 328 328 328 328 328 328 328 329 329 329 329 329 329 329 329 329 328 328 328 328 329 329 329 329 329 329 329 329 328 328 328 327 327 327
326 326 329 331 329 330 332 329 330 331 327 322 320 324 330 330 327 325 323 323 323 323 327 333 335 331 327 324 322 323 324 327 332 333 335 335 321 311 312 313 312 312 313 316 321 325 327 328 328 328 328 328 329 329 329 329 330 330 330 330 330 329 329 329 329 328 328 328 328 328 328 328 328 329 329 329 329 329 329 329 328 328 328 328 329 329 329 329 329 329 329 328 328 328 327 327 326
327 327 329 330 329 332 333 329 329 331 327 323 323 327 331 328 324 322 321 324 325 323 323 324 327 327 325 321 320 324 327 328 331 333 335 328 314 311 314 313 312 313 312 312 314 317 321 325 327 328 328 329 329 329 329 329 329 329 330 330 330 330 330 329 329 329 329 328 328 328 328 328 328 328 328 329 329 329 329 329 329 329 328 328 328 328 328 329 329 329 329 328 328 328 327 327 327
328 328 329 328 329 336 336 326 325 327 327 327 326 328 331 326 323 323 322 325 326 323 320 320 323 326 323 322 324 328 328 327 330 333 334 326 314 311 313 312 313 312 311 312 311 311 313 316 320 323 324 326 327 327 328 328 329 330 330 330 330 330 330 330 330 330 329 329 329 329 328 328 328 328 328 328 328 329 329 329 329 329 328 328 328 328 328 328 328 329 328 328 328 328 328 327 327
328 329 328 326 328 334 335 329 327 327 328 329 325 326 330 327 326 327 324 323 324 323 322 319 322 325 323 323 327 329 328 327 328 328 328 322 311 310 312 312 312 311 311 311 310 311 311 311 313 315 317 319 320 322 323 325 327 328 329 330 330 330 330 330 330 330 330 330 329 329 329 328 328 328 328 328 328 328 328 328 328 328 328 328 328 327 327 327 327 328 328 328 328 328 328 327 327
327 328 326 327 331 330 330 331 332 329 329 332 328 325 328 327 327 327 324 323 323 322 322 319 320 323 324 324 326 325 324 324 324 323 326 322 311 309 312 311 311 312 311 310 310 310 311 310 311 311 312 313 314 315 316 317 320 322 324 325 327 328 329 329 330 330 330 330 329 329 329 329 329 328 328 328 328 328 328 328 328 328 328 328 327 327 326 326 326 327 328 328 328 328 328 327 327
324 326 324 327 331 330 328 329 331 330 328 331 331 328 331 330 326 326 325 325 323 322 322 320 319 322 323 321 321 321 322 324 326 326 329 326 314 309 311 311 311 311 311 311 311 310 310 310 310 310 310 310 310 311 312 312 314 315 318 320 321 323 325 326 327 328 328 328 328 328 328 328 328 328 328 328 328 328 328 328 328 328 328 328 327 327 326 326 326 327 327 327 327 327 327 327 327
324 326 325 326 327 327 328 328 330 332 331 333 331 327 334 335 326 322 322 324 323 321 322 321 318 319 320 318 319 322 323 325 328 327 331 328 315 310 312 311 310 310 310 310 310 310 310 309 310 310 310 310 310 310 310 310 310 311 313 315 317 318 320 322 323 325 326 326 327 327 327 328 327 327 327 327 327 328 328 328 328 328 328 328 327 327 326 326 326 327 327 327 327 327 327 326 326
324 325 325 325 325 325 327 327 329 330 330 335 333 326 331 336 327 320 319 321 323 322 321 321 317 317 318 316 319 323 323 326 328 328 334 329 313 310 313 311 310 311 310 310 309 309 308 308 308 309 309 310 310 310 310 310 310 310 310 311 312 314 316 317 319 321 322 323 324 325 325 326 326 326 326 326 326 327 327 328 327 327 328 327 327 326 326 326 326 326 326 326 327 326 325 325 324
Wind_Speed
13 14 15 16 16 14 9 2 2 3 2 2 2 1 0 1 3 4 5 4 3 2 2 4 3 5 5 7 10 9 5 2 2 2 2 5 15 21 21 21 20 17 18 17 16 16 14 14 12 13 14 14 13 12 14 14 14 14 14 15 16 16 16 16 16 17 17 17 17 18 19 18 17 18 19 18 18 19 18 18 18 18 18 18 18 19 19 19 20 21 21 22 23 23 23 25 25
14 14 15 17 13 5 3 2 3 3 4 3 2 2 1 2 5 5 5 4 2 1 3 6 7 8 10 11 9 7 7 5 2 3 4 16 22 22 23 22 18 17 19 18 17 16 14 12 11 14 15 16 15 14 16 15 15 14 14 15 15 15 16 16 16 16 16 17 17 17 17 17 17 18 18 18 18 18 18 18 18 18 17 17 17 17 17 18 18 19 20 21 21 22 22 24 24
15 15 17 17 8 2 1 3 2 1 4 3 2 2 3 6 5 6 7 6 4 4 5 6 7 6 7 7 5 5 3 3 5 6 7 20 19 20 24 19 16 16 18 18 18 16 14 11 12 14 16 17 16 15 16 15 15 15 15 14 14 15 15 15 16 16 16 16 16 16 16 17 17 18 18 17 17 17 18 18 18 17 17 17 17 16 15 15 16 17 19 19 20 20 20 22 23
16 15 16 12 5 2 3 3 1 3 3 2 1 2 4 7 6 6 6 6 4 5 4 4 5 3 6 8 5 5 4 1 5 6 7 16 18 22 23 17 16 17 18 17 17 16 14 13 13 15 16 18 17 15 15 15 15 14 15 14 14 14 15 15 15 16 15 16 16 15 15 16 17 18 18 17 17 17 17 17 17 16 16 17 16 15 14 14 15 16 16 17 18 19 20 21 23
16 16 14 4 2 2 2 1 1 4 2 3 3 2 5 7 7 6 4 4 4 6 4 3 3 2 6 5 2 3 4 4 5 7 10 18 23 23 20 18 18 19 19 15 16 16 15 14 14 16 16 17 17 14 14 14 14 14 14 14 15 14 14 15 15 15 15 16 15 13 13 15 16 17 17 17 17 17 17 17 16 16 15 15 14 13 13 13 14 14 14 15 16 17 19 21 22
16 17 10 1 1 0 2 2 2 2 1 3 5 4 6 7 7 7 4 4 4 6 5 3 4 4 5 2 4 3 5 6 6 10 16 22 24 22 19 20 21 22 20 15 16 16 15 15 15 18 18 18 16 14 14 13 13 14 13 13 15 15 15 15 15 15 15 15 14 13 14 15 16 17 17 17 16 16 17 17 16 15 15 14 14 13 13 12 13 13 12 13 15 16 18 20 21
14 11 5 2 2 1 3 1 1 0 1 2 6 6 7 7 7 8 5 4 5 4 4 3 6 6 3 1 4 4 5 11 10 15 22 24 24 22 20 21 23 23 19 15 17 16 16 16 17 19 19 18 16 14 14 13 13 13 12 13 15 15 15 14 15 15 14 15 14 14 15 15 16 16 16 16 16 16 16 16 15 14 14 13 13 12 12 12 12 12 12 13 15 17 18 20 20
11 3 1 3 2 2 3 2 4 3 1 2 5 6 9 8 7 7 5 3 1 1 2 2 6 6 3 3 3 5 10 16 16 22 27 25 24 22 19 21 25 23 18 16 17 17 17 18 19 18 17 16 14 14 13 12 13 13 11 13 15 14 13 14 15 14 14 15 15 14 15 15 15 15 15 15 16 16 15 14 13 13 13 12 12 12 12 13 13 13 13 14 16 17 18 19 20
9 1 1 3 1 3 1 0 2 2 1 2 4 5 8 9 7 6 4 3 3 2 2 2 6 5 2 6 5 5 12 19 23 26 27 25 23 21 19 22 25 22 19 17 18 18 18 19 19 17 15 14 13 13 13 11 12 12 11 12 14 13 13 14 14 14 14 15 14 13 14 14 14 14 14 14 15 15 14 13 13 12 12 11 11 12 13 13 13 14 14 15 16 17 18 19 19
6 0 1 1 1 3 4 2 1 1 1 2 4 5 7 7 7 7 6 5 4 4 1 3 8 7 6 6 3 4 12 22 26 25 25 25 22 21 18 22 22 19 18 17 19 19 19 19 19 18 15 14 13 14 15 12 11 12 11 12 13 13 13 14 13 13 14 14 14 13 13 13 13 13 14 14 14 14 13 12 12 12 11 11 11 12 13 13 14 14 15 16 16 17 17 18 18
3 2 1 1 3 2 3 1 3 1 2 3 3 2 3 5 6 6 6 5 4 5 2 3 7 7 7 4 0 7 19 23 25 24 24 22 22 21 18 20 19 16 17 17 19 20 19 19 18 18 16 14 13 13 14 12 12 13 12 13 14 13 13 13 12 13 13 14 14 12 12 13 13 13 13 14 14 13 12 12 11 11 11 11 12 13 13 13 14 14 15 15 16 16 16 16 16
1 4 3 1 0 2 3 3 5 2 3 3 2 4 2 4 5 6 7 5 4 5 2 2 5 5 6 2 1 10 20 22 23 25 22 19 22 22 17 18 18 16 16 17 19 19 19 19 18 18 16 14 13 12 13 12 13 14 14 14 14 13 13 12 12 13 13 14 13 13 12 12 13 13 13 14 13 12 12 11 11 11 11 11 12 12 13 14 13 14 14 15 15 15 15 14 15
1 1 4 0 3 2 3 1 4 3 4 2 1 4 2 4 3 5 8 6 6 5 2 5 3 6 5 2 2 7 14 20 23 24 19 17 22 23 18 17 17 15 14 17 18 19 19 19 18 18 16 14 12 12 13 13 13 15 16 15 14 13 13 11 12 13 14 14 14 13 13 12 13 13 13 14 13 12 11 11 11 11 11 11 12 12 13 13 13 13 14 14 14 14 14 14 15
1 1 3 1 1 2 3 0 2 4 2 3 2 4 3 3 1 2 8 7 3 4 3 4 4 8 4 2 2 3 10 21 25 22 17 17 23 23 19 17 18 15 13 15 18 19 19 18 18 17 16 14 13 12 12 13 13 15 16 15 14 13 13 11 12 13 13 14 14 13 12 12 13 12 12 12 12 11 11 11 11 11 12 12 12 13 13 12 12 12 13 13 13 13 13 13 14
3 1 2 2 3 3 2 1 1 5 1 3 1 2 3 1 2 5 6 7 1 2 1 2 4 4 5 5 4 7 14 24 26 22 17 19 23 22 20 18 18 16 14 15 17 19 19 18 19 18 17 15 14 13 12 14 14 15 16 15 13 11 11 10 11 13 12 13 13 13 12 12 12 11 11 11 10 10 10 10 10 11 11 12 12 12 12 12 12 12 12 12 12 12 12 12 12
3 3 2 1 2 3 2 2 2 4 1 3 2 2 4 3 2 5 1 5 2 2 3 2 2 3 5 5 9 17 22 28 27 22 19 19 21 21 20 19 19 18 17 18 16 17 19 19 20 18 17 15 14 13 13 15 14 15 16 15 13 11 10 10 11 12 13 13 12 12 12 12 13 12 12 11 10 11 10 9 9 11 12 12 12 11 11 11 11 11 10 10 11 11 11 11 10
2 4 2 1 1 2 2 2 2 3 2 2 3 2 4 3 3 2 1 5 4 2 5 2 3 4 3 4 17 26 27 29 27 24 21 19 21 22 20 20 21 20 19 19 16 16 19 19 19 19 18 16 15 13 14 16 15 16 17 16 14 12 11 10 11 12 13 13 12 12 11 12 12 13 12 11 11 12 11 10 9 10 12 12 11 11 10 10 9 9 9 9 9 9 10 10 9
2 2 3 3 2 3 2 1 1 4 3 3 3 2 5 1 1 1 1 4 3 5 5 4 6 7 7 14 25 29 30 31 27 26 24 21 22 22 22 21 22 22 19 19 18 18 21 19 18 20 18 16 16 14 15 16 16 16 17 17 15 14 12 10 11 12 13 13 12 12 11 12 12 13 13 12 12 12 12 11 10 9 11 12 11 10 10 9 8 8 8 8 8 8 8 7 7
2 2 2 3 4 2 2 2 1 2 4 4 2 3 5 4 3 1 1 1 2 5 3 4 7 6 10 18 26 29 30 30 27 26 24 22 23 22 23 22 22 24 20 19 21 20 22 21 18 20 18 17 17 16 15 15 16 17 17 17 16 15 13 11 12 13 13 12 12 12 11 12 12 13 13 12 12 12 12 11 10 9 11 11 10 9 9 8 8 7 7 7 7 7 7 5 4
1 3 2 4 4 2 2 2 3 2 3 5 3 3 4 2 2 2 2 3 3 5 4 4 6 7 8 12 21 27 27 26 26 25 22 21 23 23 24 25 25 27 25 21 22 22 21 21 19 19 18 18 19 18 16 15 16 16 17 17 17 16 15 13 12 13 14 12 13 13 13 13 11 11 12 12 12 13 12 11 11 10 10 10 10 9 9 8 7 7 7 7 7 6 6 4 3
1 3 4 5 3 3 1 2 3 2 3 4 2 4 3 1 1 3 4 3 3 5 6 8 10 12 12 10 17 23 23 23 23 23 22 21 20 22 24 26 27 28 28 24 23 24 23 21 20 19 20 20 20 21 18 16 15 16 18 18 18 17 16 14 13 14 15 14 15 15 14 14 12 10 10 10 11 12 12 11 11 10 10 10 9 9 9 8 7 7 7 7 6 5 5 5 5
2 3 5 5 3 3 3 2 2 2 2 3 3 4 1 1 0 2 4 4 5 5 6 9 11 14 15 14 16 19 19 20 21 21 22 22 22 23 23 24 25 25 27 26 25 26 26 24 21 21 23 22 21 22 19 17 16 16 18 19 19 18 17 16 14 15 16 16 17 17 15 14 15 13 11 11 11 11 10 10 10 9 9 9 9 9 9 9 8 7 6 6 5 5 5 4 5
2 3 4 6 5 5 4 3 1 1 4 3 2 2 0 3 2 3 5 6 7 5 6 7 11 18 21 19 18 16 16 18 21 23 24 25 25 25 26 26 27 27 28 29 28 27 27 27 25 24 24 24 23 22 20 18 16 16 18 18 18 18 17 16 17 17 18 20 20 18 15 14 18 17 14 12 12 12 11 10 8 9 10 9 9 9 9 9 8 7 6 5 5 5 5 4 3
4 3 4 5 5 6 5 3 3 1 4 2 3 2 1 1 2 1 3 7 8 7 4 8 13 20 21 17 16 16 18 20 23 26 27 28 29 28 28 29 29 29 29 30 30 28 28 29 29 27 25 26 26 24 21 19 18 16 17 18 17 17 17 17 19 19 18 21 22 18 15 16 20 19 16 14 12 13 13 10 8 10 10 10 10 8 9 8 7 7 6 5 6 7 6 4 2
4 4 3 2 3 5 5 4 3 2 3 2 4 2 3 5 3 1 5 8 7 7 4 8 12 16 16 15 15 14 16 20 22 24 25 27 29 27 26 28 29 29 30 31 31 31 30 29 31 30 28 28 27 26 24 21 20 19 19 21 19 17 17 17 19 20 19 21 22 19 17 18 20 19 18 15 13 15 14 11 11 11 11 11 10 10 10 9 8 9 9 8 8 7 6 4 3
5 5 3 3 3 5 5 4 4 3 3 3 4 3 6 5 3 3 8 9 8 5 5 8 11 12 13 12 13 14 13 17 21 23 25 25 27 27 25 26 29 31 31 31 32 32 31 30 31 32 32 31 29 28 26 25 24 23 22 22 21 19 19 18 19 20 20 20 22 22 20 20 20 19 19 17 15 16 13 13 13 13 13 12 13 13 11 10 10 9 10 10 9 7 5 4 6
3 3 3 4 3 5 5 4 5 4 2 3 5 5 6 3 3 4 7 8 7 6 6 7 10 11 12 11 12 15 15 18 23 24 23 22 24 27 27 26 28 31 32 31 32 32 31 32 32 32 33 32 32 30 29 27 27 27 26 24 22 22 21 20 20 21 21 21 21 23 23 21 19 20 21 19 18 18 16 16 16 16 17 16 16 15 12 12 11 10 10 10 9 9 7 6 8
3 4 4 3 2 2 5 5 5 3 2 5 6 3 5 2 3 6 6 6 3 7 8 7 9 9 10 11 10 12 14 19 23 21 21 24 25 27 30 30 28 29 33 33 32 31 31 32 33 33 33 32 33 33 31 29 28 29 29 27 25 25 24 23 23 23 23 23 22 22 24 24 21 20 22 21 20 20 21 21 20 20 20 18 17 15 13 12 11 11 11 11 12 11 10 9 9
4 6 4 3 3 3 6 5 5 5 3 5 6 3 6 6 7 8 9 6 4 7 9 8 8 8 8 9 9 9 13 18 21 21 25 28 29 30 32 34 31 29 32 33 32 32 31 31 34 34 33 33 33 34 33 31 30 29 29 31 29 28 28 27 26 26 26 26 25 24 25 26 25 23 23 22 22 22 22 23 23 23 21 19 16 14 13 12 12 14 13 13 13 12 12 11 10
3 4 4 1 4 4 7 6 5 7 4 5 7 2 6 8 10 11 11 9 6 7 8 7 7 7 7 7 8 8 12 17 20 25 28 28 29 32 33 35 34 30 29 31 32 32 32 31 33 34 34 33 33 33 34 33 32 30 29 30 32 32 31 30 28 28 28 28 27 26 26 27 27 26 25 23 23 23 23 23 24 23 21 18 16 15 14 14 13 15 15 14 14 13 12 11 10
3 3 2 1 1 5 6 6 8 7 4 6 7 3 6 6 9 9 9 9 9 8 7 7 6 6 6 6 7 8 11 17 23 27 29 28 29 31 33 33 34 33 28 29 33 32 32 32 33 34 34 34 33 34 34 34 33 32 30 29 31 32 33 33 31 29 29 28 29 29 28 28 28 28 27 25 24 24 23 23 23 22 19 17 16 16 15 15 14 14 16 15 13 12 11 10 9
2 3 1 2 4 5 5 4 12 10 4 6 8 3 7 8 9 8 4 8 11 9 8 7 7 7 7 7 7 7 9 16 22 25 28 29 30 31 32 32 32 35 32 29 31 32 32 32 33 34 34 34 34 34 34 34 34 33 31 29 29 30 32 33 33 32 31 29 29 30 30 29 29 29 29 28 26 25 25 23 22 20 18 17 17 17 17 16 14 14 15 14 14 13 12 12 11
2 3 3 4 5 5 5 3 9 10 4 5 7 4 4 5 8 8 4 8 10 9 9 8 8 8 8 7 7 7 7 10 14 20 27 29 31 32 33 33 33 35 35 32 30 31 33 33 33 33 34 35 34 34 34 33 33 33 32 30 29 29 30 31 32 33 33 32 31 30 30 30 30 30 30 30 29 27 26 25 22 20 19 18 18 19 19 18 16 15 15 15 16 16 15 14 13
3 3 3 4 5 4 2 3 4 8 7 7 8 6 7 5 5 6 4 8 9 9 9 9 8 8 7 8 8 8 8 8 9 17 26 29 31 32 33 34 33 34 35 35 32 32 32 33 33 33 33 34 34 34 34 33 33 32 32 31 31 30 30 30 29 30 33 34 33 32 31 31 31 30 29 30 31 30 28 26 24 22 22 20 20 21 20 19 18 17 16 17 18 18 17 17 16
6 6 5 4 4 5 4 4 3 9 8 8 8 8 12 10 7 7 6 6 9 9 9 8 9 8 7 7 8 8 9 9 12 20 27 29 30 32 33 33 34 34 34 35 35 33 32 32 33 33 33 33 34 34 34 33 32 31 32 31 32 32 32 31 30 30 31 32 34 33 32 32 31 31 30 29 31 32 30 28 26 26 25 23 23 23 23 22 20 19 19 19 20 20 18 17 16
10 9 6 4 4 5 5 4 5 11 9 8 9 9 12 11 9 8 9 7 8 9 9 8 8 8 8 7 7 9 10 10 16 25 28 28 30 32 33 33 34 34 34 35 35 35 34 34 34 34 34 34 34 34 34 33 31 31 31 31 32 33 32 32 31 31 30 31 33 33 32 32 32 31 30 30 31 32 32 30 28 28 27 26 26 27 26 26 24 22 21 21 21 20 19 18 16
9 7 5 6 5 5 5 4 5 8 8 8 9 9 11 11 9 10 10 8 8 9 9 9 9 9 9 9 8 10 10 11 17 23 26 29 31 32 32 33 33 34 34 35 36 37 37 36 35 35 35 35 35 36 36 35 34 32 32 32 33 33 32 32 32 32 31 31 31 32 33 33 32 32 31 30 30 32 33 31 29 29 29 29 29 29 29 28 26 25 23 22 22 22 22 20 18
6 5 5 5 6 5 5 3 3 3 3 6 6 7 10 10 8 9 9 8 9 10 11 11 11 10 9 9 10 10 9 9 12 16 22 27 29 31 32 32 33 34 35 37 37 38 38 37 37 37 36 37 37 38 37 38 38 36 34 34 34 33 33 33 34 33 33 32 31 32 33 33 33 33 32 31 31 32 33 33 32 31 31 31 31 30 30 29 28 27 25 25 24 24 24 22 20
5 4 4 4 5 4 2 3 2 2 2 5 3 5 9 9 8 9 8 8 8 10 13 13 13 11 10 10 10 10 9 8 9 11 17 25 28 30 31 32 34 35 35 37 38 38 38 38 39 38 38 38 39 39 39 39 39 39 37 35 34 33 33 34 34 34 33 34 34 33 33 34 34 34 34 33 33 33 34 35 35 33 33 33 32 32 32 31 30 29 28 28 26 26 25 23 22
5 4 4 3 4 4 1 3 2 1 3 3 2 4 7 7 8 9 9 9 9 10 12 12 12 13 13 13 12 11 11 10 10 10 13 19 25 28 30 32 34 34 34 35 37 37 38 39 41 40 40 40 40 40 40 40 38 37 37 36 34 33 32 32 32 33 34 35 35 35 36 36 36 36 36 35 35 35 35 36 36 36 36 35 35 35 35 34 33 32 30 30 28 27 26 25 24
5 5 5 4 3 4 3 3 2 1 3 1 3 5 6 6 7 10 9 9 11 11 12 12 11 10 10 11 11 11 12 12 12 12 11 14 19 25 30 34 35 34 35 36 38 39 39 41 41 41 41 41 42 42 41 39 36 35 34 33 31 30 29 28 29 33 36 36 38 39 39 38 38 38 38 38 38 38 38 38 38 38 38 38 38 38 38 37 36 35 33 32 32 30 28 27 25
5 6 6 7 6 3 2 3 3 2 5 3 2 2 6 4 5 9 6 5 8 8 11 14 13 10 9 9 9 10 10 11 11 12 12 14 18 24 28 31 32 33 36 39 40 41 41 40 40 40 41 42 42 42 41 39 36 35 34 33 31 30 29 31 34 37 37 39 41 41 40 40 40 40 40 40 40 40 40 40 39 40 40 40 41 41 40 39 39 38 36 34 34 33 30 27 26
4 6 7 8 6 6 6 4 3 2 4 3 3 3 6 6 6 9 7 7 10 9 9 12 11 10 10 10 10 10 10 10 10 11 11 13 18 21 23 28 31 33 36 38 38 39 40 39 39 40 40 40 41 40 40 40 38 36 36 36 35 34 33 36 39 38 36 38 39 38 38 39 40 40 40 41 41 42 42 41 41 41 41 42 42 42 42 42 41 40 39 37 36 35 33 29 27
4 5 8 9 6 6 7 6 3 2 2 4 3 3 3 6 6 7 8 9 12 12 11 10 10 11 11 11 11 11 12 12 10 10 10 11 16 19 23 28 31 34 36 35 34 35 37 38 38 38 38 38 38 38 38 40 41 39 38 37 36 36 37 38 37 34 34 34 35 36 38 39 40 40 40 41 41 42 42 42 42 42 42 42 42 43 44 43 42 40 40 39 38 37 36 34 30
3 3 7 7 5 5 6 6 3 1 2 4 3 2 2 6 6 5 5 8 11 12 12 12 11 10 11 11 11 12 13 12 10 10 10 10 16 22 25 28 31 34 35 34 34 35 35 36 35 35 36 37 37 37 37 40 41 40 38 37 36 38 39 37 32 30 31 32 33 35 37 38 39 40 41 41 41 41 42 43 42 42 43 43 42 43 44 43 41 41 40 40 40 39 38 37 33
2 5 8 6 5 7 6 5 4 3 1 5 4 3 2 5 7 5 2 5 11 11 10 11 12 11 10 10 11 11 10 9 8 8 9 12 17 23 26 27 29 33 34 34 34 34 33 33 33 33 36 38 37 37 37 39 41 40 38 38 38 38 36 33 29 29 30 31 32 35 36 38 39 41 43 43 43 42 42 43 43 43 43 43 43 43 42 42 42 42 41 41 41 39 38 38 36
5 8 9 7 6 6 4 3 5 2 4 6 7 7 5 4 6 5 4 6 8 8 7 9 9 9 9 9 9 9 8 7 7 7 8 11 16 20 22 24 27 30 31 32 32 32 32 33 33 34 36 37 37 37 37 38 39 39 40 39 39 39 36 31 30 32 32 32 34 36 37 38 39 41 43 44 45 45 44 44 44 44 43 42 43 43 42 42 42 42 41 40 41 40 39 38 38
8 5 6 5 3 4 3 4 3 2 5 5 7 8 7 6 6 6 6 7 7 7 7 8 6 5 5 5 5 6 7 6 6 6 7 7 10 13 16 19 23 25 28 30 31 32 32 33 34 35 36 37 37 37 37 37 37 39 41 41 41 41 37 34 33 35 35 34 35 36 35 36 38 39 41 43 46 48 46 45 44 44 43 43 43 43 43 42 41 40 40 40 40 41 40 38 38
7 5 7 6 2 2 1 1 1 4 6 4 3 4 5 7 7 7 10 10 9 8 7 6 7 7 5 6 5 5 5 5 5 6 6 6 6 8 11 15 17 19 24 28 31 32 32 33 33 34 36 37 36 35 36 37 37 39 41 41 41 40 37 37 37 37 36 35 36 36 35 36 37 38 40 43 45 45 45 45 44 43 43 43 43 42 42 42 40 39 38 39 40 41 40 39 39
8 8 8 6 4 3 3 3 1 4 5 3 2 3 4 4 4 11 17 16 10 7 7 6 7 7 7 7 6 4 4 5 5 5 5 5 6 8 11 13 13 15 19 23 26 29 30 30 31 32 34 35 34 34 34 35 37 39 40 40 40 39 38 39 39 39 38 37 37 37 37 37 37 38 40 42 42 40 41 43 43 43 42 42 41 41 41 42 41 40 38 38 39 41 41 40 40
6 6 6 6 5 4 5 4 3 4 3 2 2 2 4 3 3 9 15 13 7 4 7 7 5 5 5 5 3 3 4 5 5 5 6 6 7 10 11 12 14 15 16 18 20 23 25 26 28 29 32 32 31 32 33 34 36 38 39 39 39 39 39 39 39 40 39 38 37 36 37 37 38 39 39 39 38 37 37 39 40 41 41 41 40 40 41 41 42 42 40 39 39 40 40 40 41
2 3 5 4 4 4 3 3 4 4 1 1 2 3 4 4 6 8 7 9 7 5 6 5 6 4 4 4 3 4 5 6 5 5 6 7 8 10 11 12 13 13 14 16 17 18 21 23 25 27 29 30 29 30 32 33 35 36 37 38 39 39 38 38 38 38 38 37 36 35 37 38 38 39 39 38 37 36 37 37 38 40 40 40 40 40 41 41 41 42 42 41 39 38 39 40 40
2 5 7 5 3 6 4 1 0 3 2 3 3 4 5 3 7 9 9 9 8 7 6 6 7 4 4 4 5 5 6 6 5 6 6 6 7 9 10 11 11 12 12 14 15 16 18 20 23 25 27 28 28 28 29 31 32 33 35 36 36 36 36 36 37 37 36 36 36 37 38 38 38 39 39 38 38 37 38 38 39 40 40 40 40 41 42 41 40 40 42 42 41 39 38 40 40
6 6 7 4 3 3 4 1 2 2 3 3 2 6 4 2 5 5 6 10 9 7 7 7 7 4 5 6 6 6 6 5 5 5 5 5 5 7 9 9 10 10 11 13 14 15 17 18 21 23 24 25 25 25 25 26 27 29 31 32 33 33 34 35 36 36 36 35 36 37 38 38 38 38 37 37 37 37 38 39 39 39 39 39 40 41 42 41 39 38 38 41 42 41 39 39 40
5 6 7 5 2 2 3 3 2 2 4 4 3 5 4 5 6 2 5 11 10 8 7 7 7 7 6 6 7 7 6 4 5 5 5 5 5 7 7 8 8 9 10 11 12 15 17 19 19 20 21 22 22 22 23 24 25 27 29 30 31 33 34 35 36 36 36 36 36 36 36 36 37 36 35 35 36 36 37 37 38 38 38 38 39 40 40 39 39 39 38 38 39 40 41 41 40
3 5 6 4 2 3 4 3 3 3 3 4 3 3 4 7 7 6 9 11 11 11 8 8 9 8 7 7 7 7 6 6 6 6 6 5 6 7 7 6 7 7 8 9 10 12 14 15 16 17 18 19 20 21 22 24 26 27 29 30 31 32 33 33 34 34 34 35 35 35 35 35 35 34 34 34 34 34 35 35 36 37 37 37 38 38 37 36 37 39 40 40 38 38 41 42 41
6 7 8 5 2 2 2 2 2 4 4 3 3 4 6 6 4 9 12 11 11 12 10 9 8 8 9 8 8 7 7 7 6 6 6 6 6 7 7 6 5 5 6 7 9 10 11 12 14 14 15 16 17 19 20 22 23 25 28 30 30 30 29 29 29 30 31 31 31 31 32 32 32 32 32 32 32 32 32 33 34 35 37 37 37 36 35 35 36 37 39 40 40 39 40 41 41
9 9 10 9 6 4 3 4 2 3 4 4 4 5 7 5 4 8 11 9 9 10 10 9 8 10 10 8 8 8 7 7 7 7 6 6 6 7 7 6 4 4 5 6 8 9 11 13 13 14 15 16 16 17 18 18 19 21 23 25 26 26 26 27 27 28 29 29 29 28 27 27 28 29 29 30 31 31 31 32 33 34 35 35 35 34 33 34 35 37 38 39 39 38 37 36 36
Wind_Direction
335 330 334 338 335 331 326 65 55 322 77 29 268 91 278 179 112 96 58 52 60 25 60 85 48 47 83 105 117 99 46 351 185 144 176 142 137 155 156 149 149 146 149 149 145 139 140 137 132 137 133 125 118 115 115 111 106 102 102 103 104 105 105 106 106 105 103 102 102 103 102 101 100 99 99 99 98 97 96 95 94 92 89 88 88 89 90 90 89 89 89 89 90 92 96 99 95
338 332 337 339 336 340 313 81 73 333 47 33 287 121 153 32 57 91 88 71 92 124 72 74 53 62 100 121 124 89 43 11 81 108 104 125 130 140 146 148 146 145 150 152 148 142 142 139 130 132 132 128 122 120 116 112 113 111 110 108 107 106 107 109 109 108 105 104 104 104 104 103 101 100 99 99 98 97 96 94 91 91 91 90 87 88 89 88 88 90 91 92 92 94 97 99 96
338 334 337 341 343 110 15 33 92 6 64 96 279 296 87 74 84 110 108 102 123 111 74 65 50 59 95 98 73 62 80 17 75 86 105 129 131 137 145 146 140 143 150 152 149 145 145 144 137 132 131 129 123 123 120 118 116 113 114 111 110 109 108 110 111 110 106 105 104 104 107 107 105 102 101 102 102 99 98 96 93 94 95 94 90 88 89 89 89 91 94 95 95 96 99 101 97
337 335 335 345 0 37 47 44 159 128 102 148 315 333 103 108 118 110 114 119 120 92 68 66 48 5 71 87 87 75 113 106 102 103 120 136 137 143 145 141 139 143 147 152 151 147 147 146 144 138 134 129 125 125 122 121 119 117 117 113 113 114 112 112 112 110 106 105 104 108 113 114 112 109 107 105 103 101 100 99 97 95 93 92 92 90 89 91 91 93 94 97 99 99 101 103 100
337 333 327 353 47 358 83 57 19 89 113 179 108 97 129 123 120 110 105 101 87 77 63 85 75 352 63 81 117 103 122 118 130 120 123 138 141 144 144 144 144 145 149 155 152 147 145 145 145 142 137 131 127 126 121 120 121 122 121 118 119 118 117 116 117 114 110 110 108 108 113 116 116 113 109 104 102 102 101 100 99 96 93 91 90 92 92 92 92 92 94 97 100 102 105 106 103
336 338 327 138 138 166 98 30 1 42 231 176 117 133 140 122 120 113 82 56 47 77 76 76 100 92 72 32 56 100 166 140 142 134 132 140 144 143 144 149 146 147 152 157 154 146 141 142 142 142 141 134 130 130 127 123 121 123 124 128 127 122 121 121 123 122 118 118 114 107 110 114 114 112 108 104 103 104 102 100 101 100 98 97 95 97 98 94 93 92 94 99 103 105 108 110 107
338 343 347 78 352 45 94 77 246 278 337 123 116 138 136 123 123 110 98 60 10 49 63 65 114 103 73 115 67 38 149 146 145 141 140 141 144 143 145 150 146 150 154 155 155 146 141 141 139 141 144 138 135 136 132 129 125 125 129 135 135 131 128 128 128 126 120 119 116 111 111 112 112 110 106 104 105 105 103 101 104 105 105 106 103 103 103 96 93 93 95 100 106 109 110 112 110
347 330 10 54 357 358 90 159 228 196 105 74 115 139 137 134 128 116 136 121 22 76 62 63 101 93 29 68 90 37 99 136 144 140 142 140 143 144 147 148 147 152 154 154 156 149 143 143 141 142 144 139 139 140 135 132 131 132 137 140 142 140 133 129 127 124 121 119 117 116 113 112 111 107 105 104 105 106 104 105 109 110 111 113 112 109 103 97 95 94 95 100 107 111 112 113 111
353 241 350 51 19 340 18 204 242 203 99 66 96 121 141 140 128 124 136 113 133 133 122 140 84 97 99 64 95 70 90 126 136 138 142 140 142 146 150 152 150 152 154 156 158 151 144 144 144 144 146 144 144 144 140 139 140 140 140 143 147 145 134 126 125 124 124 123 120 118 115 112 110 107 106 105 107 108 105 107 112 113 114 117 116 107 101 98 97 95 94 99 106 111 113 113 111
358 193 26 61 34 342 316 317 209 195 108 112 95 109 137 138 128 126 124 123 128 109 143 126 90 111 129 89 95 110 115 129 133 138 142 141 144 148 153 156 156 155 154 158 159 155 148 146 147 148 151 148 147 147 147 152 154 149 143 142 144 145 137 128 127 127 127 128 126 122 118 114 113 112 110 109 110 112 111 113 116 116 116 118 115 105 101 99 97 96 94 98 104 109 112 112 111
353 333 54 87 22 332 288 240 165 155 100 86 52 41 107 117 116 118 113 113 107 112 157 77 101 126 112 97 320 133 135 136 138 142 144 143 148 152 153 154 159 161 156 158 162 160 153 151 150 152 155 152 151 151 152 156 159 155 149 143 138 140 138 131 130 132 132 132 129 124 122 120 118 118 118 119 117 116 118 119 119 120 120 118 111 106 103 99 97 97 96 98 102 107 110 111 112
3 336 44 95 277 228 253 168 151 103 33 40 13 316 14 94 100 126 126 120 126 120 164 125 128 136 103 96 204 143 138 140 145 146 147 147 152 155 152 150 155 160 157 159 164 164 160 157 155 157 161 162 161 159 156 155 158 155 149 145 139 140 140 137 137 137 137 135 134 133 133 133 130 127 128 130 126 122 123 123 125 125 120 113 107 107 105 102 99 98 98 99 102 105 107 108 112
64 323 67 142 213 233 287 155 145 95 12 352 222 286 5 84 88 158 144 124 135 123 191 212 142 96 99 106 142 153 146 146 150 149 148 149 153 155 152 151 155 158 158 162 167 168 165 163 162 165 168 170 170 167 163 157 158 155 149 150 151 152 152 151 149 145 145 145 147 148 145 143 140 138 137 138 136 133 134 134 133 128 122 117 111 109 106 105 104 102 101 100 101 103 104 105 110
131 183 89 256 281 336 283 214 120 97 17 283 250 304 1 80 68 125 123 98 94 138 196 222 117 90 102 125 128 193 163 153 154 152 146 146 154 154 151 152 155 159 160 164 169 171 171 171 171 171 174 176 174 171 170 166 163 161 156 159 162 163 164 164 159 155 157 158 157 157 152 148 147 147 146 146 146 145 145 142 139 135 129 124 118 115 112 110 108 105 103 102 102 102 103 104 107
153 127 71 293 326 341 280 291 131 116 131 260 295 334 38 59 102 64 102 115 54 212 153 64 86 95 151 166 181 205 171 156 157 157 145 141 151 155 155 152 153 160 167 168 169 174 176 178 179 179 181 182 179 175 176 174 171 170 167 169 169 167 169 167 162 163 164 163 163 163 160 156 157 157 155 153 152 153 152 149 148 143 134 128 124 121 120 116 112 110 107 105 103 102 100 101 104
151 112 78 301 310 328 308 344 71 105 223 232 289 6 65 332 59 75 115 134 131 302 44 46 35 99 162 183 178 177 167 157 158 161 150 141 148 155 160 159 158 161 169 172 169 175 179 180 182 184 187 187 186 184 181 178 177 177 175 177 176 172 173 167 164 167 166 164 166 167 167 167 167 168 167 163 161 163 164 161 159 149 141 136 132 128 125 122 119 116 112 109 106 104 101 100 101
98 89 133 221 289 313 310 358 70 142 215 228 289 4 102 318 357 98 295 90 112 83 57 37 38 82 135 164 159 160 159 156 156 159 156 148 148 151 160 166 167 167 170 174 177 182 182 181 183 185 188 188 189 189 184 180 179 179 179 180 180 177 177 172 171 173 172 170 170 171 173 176 176 179 179 176 173 174 176 173 167 158 151 146 141 137 133 130 127 124 120 116 114 112 108 102 100
78 87 152 200 224 257 266 305 249 156 154 200 227 131 125 188 338 120 41 60 94 100 81 67 54 58 91 126 144 150 152 154 154 156 158 156 153 152 158 167 175 178 175 177 185 190 187 185 184 186 188 188 188 184 182 183 182 183 182 182 182 182 183 182 181 180 180 176 176 179 180 184 184 186 188 188 183 181 182 178 172 167 159 154 150 145 142 139 135 132 129 127 128 127 121 109 104
121 134 147 216 200 219 252 165 69 99 159 166 139 105 115 169 175 104 131 188 139 111 105 89 79 73 98 123 139 146 151 154 156 158 161 163 164 163 163 167 177 184 183 181 186 190 192 192 188 187 186 187 189 183 181 186 188 189 188 187 186 186 189 190 188 188 188 183 182 183 179 181 186 189 193 195 191 187 186 181 178 172 163 160 158 154 152 149 146 144 142 140 142 142 137 123 117
165 136 150 241 202 125 4 87 86 60 153 136 104 88 92 150 154 120 169 177 169 163 162 123 128 145 137 137 143 149 154 157 161 163 167 172 175 173 170 171 177 185 186 182 186 188 191 195 192 189 186 189 194 189 186 189 191 196 195 193 191 191 195 196 196 193 192 190 183 177 170 170 180 189 192 196 200 197 195 190 186 181 173 170 167 166 164 160 159 158 155 152 153 155 156 147 148
162 155 176 227 181 113 1 47 62 26 97 128 123 80 70 295 129 143 147 119 251 224 194 182 175 164 158 157 154 156 158 162 167 170 174 178 182 183 182 180 181 186 184 181 188 191 191 193 193 191 189 192 197 194 191 193 194 197 199 198 198 198 200 201 202 198 196 191 178 172 170 174 184 194 197 201 205 202 204 202 195 191 187 184 180 179 177 171 165 164 163 164 168 167 171 175 188
169 215 205 215 144 119 215 119 44 323 73 84 71 82 117 290 57 172 142 149 235 229 196 192 174 163 165 165 161 162 164 169 175 178 181 183 187 190 190 188 187 189 187 186 190 195 196 193 193 194 192 195 199 198 196 198 199 199 199 198 200 202 204 207 205 200 197 188 177 173 177 188 196 204 210 213 217 212 209 207 201 197 194 193 192 191 190 181 171 172 175 175 181 184 193 205 213
162 241 235 224 157 139 196 142 204 285 76 77 101 158 276 27 317 240 168 193 226 219 184 176 171 168 166 162 162 167 172 178 183 186 187 188 191 192 192 191 190 192 193 192 191 196 199 194 193 196 196 197 200 202 202 201 202 202 197 193 198 200 200 205 203 196 193 186 180 182 189 201 203 205 215 220 228 224 209 201 198 198 198 200 198 199 203 195 182 185 194 194 198 207 223 239 241
167 229 249 223 156 145 167 152 199 167 106 141 131 112 80 122 273 278 206 228 238 238 184 143 160 162 157 159 169 176 179 183 189 192 190 192 195 193 192 193 193 195 195 195 193 196 199 195 193 195 199 199 200 204 206 205 203 202 198 196 201 200 197 202 201 192 192 189 185 190 198 202 202 206 215 222 230 225 211 202 204 209 209 207 204 211 216 209 202 207 214 214 217 226 235 238 252
187 210 237 190 143 151 154 149 184 188 156 151 96 100 228 209 206 247 245 247 247 236 168 124 140 151 157 168 178 180 182 187 191 193 195 197 199 198 196 195 196 195 196 197 196 197 199 198 195 196 199 199 202 204 206 206 203 203 203 204 205 205 202 201 199 193 195 196 191 195 196 194 203 212 219 223 222 217 213 211 216 221 221 219 219 224 224 222 220 218 218 221 228 235 236 230 234
212 202 198 152 164 170 155 153 181 204 196 134 113 229 257 232 197 250 247 239 240 216 152 136 141 154 170 176 181 182 185 190 191 193 198 199 200 203 203 198 196 197 199 199 199 200 199 199 199 200 201 201 203 204 205 206 204 203 204 207 209 210 209 203 203 198 198 204 199 199 200 199 207 218 222 222 213 208 210 215 221 224 225 229 231 229 227 229 227 217 214 221 227 226 230 236 234
201 189 174 168 178 176 162 171 196 205 220 180 169 228 266 250 201 244 259 248 230 188 170 162 152 167 180 180 186 186 187 194 194 193 196 199 199 203 206 204 200 199 200 199 200 203 202 201 203 204 205 205 204 203 205 207 206 204 202 204 207 210 211 207 207 205 204 210 208 204 206 207 212 219 220 219 214 211 209 211 217 221 224 229 228 227 228 232 228 216 216 222 223 221 228 234 231
129 112 127 199 222 198 175 182 204 184 234 205 169 243 280 266 223 221 248 271 206 172 187 184 171 181 185 184 188 188 193 195 194 192 193 198 200 201 205 208 205 200 200 201 202 204 204 203 204 207 208 207 205 203 204 207 208 208 204 202 205 206 208 209 210 209 208 213 215 212 211 210 214 219 216 215 220 221 215 212 215 219 225 229 226 225 227 227 217 212 218 221 221 225 227 226 227
103 100 112 275 318 274 209 195 198 170 216 197 144 312 277 233 230 217 226 240 182 171 187 192 191 192 188 189 189 191 197 192 191 197 200 201 200 201 204 208 208 204 202 203 204 204 205 205 205 207 209 209 208 206 205 206 210 212 208 205 206 206 207 209 211 210 210 212 216 217 215 213 215 218 216 216 223 226 223 218 217 220 226 230 227 223 223 220 212 209 213 216 221 228 229 228 232
93 96 110 324 342 286 224 196 185 175 202 167 137 284 263 234 234 222 223 216 183 184 195 201 206 203 200 195 193 197 196 189 192 201 204 204 202 203 206 208 209 209 206 203 204 205 205 206 205 206 208 211 211 209 207 206 210 213 213 211 210 209 209 209 210 212 211 212 215 217 218 217 216 217 216 219 224 228 228 224 224 227 228 227 222 220 219 219 216 212 213 218 223 227 231 229 232
116 102 89 146 242 271 243 198 174 179 214 153 136 240 257 255 247 234 226 198 183 198 210 213 216 213 212 206 201 204 198 196 200 203 204 206 205 205 208 209 209 211 210 205 204 206 207 207 207 207 209 212 212 211 211 209 210 214 216 216 215 214 212 211 211 212 212 213 216 218 220 221 220 218 216 218 223 226 228 228 229 229 225 220 216 218 219 221 223 218 217 221 224 227 230 227 229
132 130 214 208 204 257 286 222 176 176 219 166 145 224 264 263 251 245 217 176 183 199 212 218 220 216 212 213 210 211 208 205 205 204 205 207 206 207 209 210 209 210 212 210 207 207 208 208 209 209 210 212 212 213 213 213 213 215 218 219 218 218 216 215 214 214 213 213 216 219 221 222 221 220 217 217 221 225 227 228 228 224 219 216 215 218 218 220 222 218 216 218 224 231 234 234 238
198 150 188 203 200 239 302 277 188 169 158 190 191 217 267 271 257 250 203 169 182 196 209 215 220 219 210 210 211 210 212 210 208 206 206 207 207 209 209 210 210 210 211 212 209 207 207 209 211 212 212 213 213 214 215 215 216 217 219 220 220 220 220 220 218 217 216 214 216 219 221 222 223 223 220 218 219 223 226 228 227 222 218 218 216 217 218 219 220 218 216 217 225 231 235 237 240
205 159 197 218 195 198 234 268 206 160 154 201 217 232 243 262 290 282 236 179 179 193 210 216 221 223 215 211 210 208 203 204 211 209 207 207 208 210 211 211 211 211 211 212 212 210 209 210 212 214 215 215 214 215 216 217 219 219 220 221 221 222 224 225 224 222 220 217 217 220 221 223 225 226 225 221 219 222 226 227 225 220 219 219 217 217 219 220 221 222 220 220 225 230 234 236 239
171 178 199 220 193 192 206 230 194 164 181 206 204 233 247 255 282 289 274 208 188 201 210 216 223 224 222 214 210 210 203 203 210 210 208 207 208 209 210 212 211 211 211 212 212 212 212 212 214 215 215 215 216 216 217 218 220 220 220 221 223 224 225 226 227 226 224 221 220 221 222 224 226 228 229 226 222 221 225 226 223 219 218 218 217 219 219 219 221 223 223 223 226 231 234 236 241
173 185 180 174 185 222 216 224 208 175 187 215 201 219 243 250 257 262 267 239 211 216 215 219 225 226 228 219 214 213 207 209 212 210 208 207 209 209 209 210 210 210 211 210 210 210 212 212 213 214 214 215 215 215 215 215 216 217 219 220 222 224 225 226 228 229 228 226 224 224 224 225 227 229 231 229 225 222 224 226 223 218 217 217 218 219 218 219 221 222 222 223 225 229 233 236 239
180 182 174 181 185 240 237 234 240 178 179 224 214 218 239 245 248 248 251 242 230 231 227 226 224 223 225 219 216 213 212 217 215 211 209 209 210 210 208 209 208 208 209 208 207 208 210 210 210 212 213 213 213 213 212 212 212 213 215 218 220 223 224 226 227 230 231 231 229 227 227 227 229 231 232 230 227 224 224 226 225 219 216 218 220 222 221 223 225 225 223 223 225 227 229 231 233
198 183 170 194 192 226 250 241 251 154 168 251 241 235 250 253 250 250 246 236 229 227 226 228 224 222 221 218 216 213 216 219 214 212 210 208 209 208 207 206 206 206 207 207 208 209 209 209 210 211 212 212 213 213 212 212 213 214 214 217 220 222 224 225 227 229 231 233 233 232 230 229 229 231 233 232 229 226 225 225 226 223 218 218 222 225 225 226 225 224 223 223 224 226 229 229 228
220 204 159 192 206 206 296 339 348 106 195 264 279 252 259 263 257 256 251 239 233 224 222 223 221 221 219 217 217 213 215 217 212 211 210 207 206 206 204 204 206 207 207 207 209 210 209 209 211 212 212 212 213 213 214 215 216 217 218 219 220 221 225 227 229 231 232 233 234 234 233 231 231 231 231 232 231 229 228 227 226 225 223 221 222 224 225 226 225 223 222 223 223 225 229 230 227
217 205 166 198 216 177 223 304 292 211 213 238 330 300 271 265 265 262 250 242 244 235 227 224 219 218 217 216 216 210 209 213 214 215 211 207 205 203 202 203 206 207 207 207 208 208 208 210 211 211 212 213 213 214 216 218 218 219 221 223 224 224 227 230 231 233 233 233 234 234 233 232 231 231 231 231 231 231 231 230 229 227 226 224 224 224 224 224 224 223 223 223 222 221 224 225 225
221 209 179 182 193 181 200 210 190 300 309 313 30 333 284 249 254 259 252 246 248 246 242 242 233 224 226 225 221 215 211 209 210 215 214 209 206 204 203 204 205 204 206 208 209 209 210 212 212 212 212 213 214 215 216 216 216 217 218 220 223 226 229 230 230 230 230 231 232 233 232 231 230 230 231 231 231 232 232 232 231 229 227 226 225 224 225 225 225 225 224 223 222 220 220 221 222
228 220 188 172 166 142 121 133 111 34 312 294 90 331 286 279 266 262 268 270 260 254 246 246 245 236 233 234 229 222 221 217 212 213 212 208 208 208 207 206 204 204 207 210 211 212 212 213 213 213 213 214 216 216 215 212 212 212 210 210 212 216 220 223 224 226 226 227 230 231 231 230 230 230 231 231 232 232 232 232 231 230 229 227 226 226 226 226 225 225 225 223 222 222 221 220 219
223 220 178 167 152 110 107 126 131 185 257 286 102 170 269 305 290 268 277 284 275 272 253 245 246 240 231 227 225 220 221 222 221 219 215 210 209 208 208 209 206 207 211 212 213 213 214 214 214 214 214 215 217 217 214 212 211 211 210 210 211 212 217 223 226 226 227 228 230 231 230 230 229 230 231 231 231 231 232 232 231 231 230 228 227 226 226 227 226 226 225 224 223 223 222 220 218
224 215 166 173 179 143 128 119 133 198 250 325 20 133 257 291 268 259 275 281 279 274 265 254 242 237 236 230 222 218 217 214 214 217 215 214 213 210 210 210 210 212 214 215 215 215 216 216 216 215 215 217 217 217 216 213 213 214 214 215 217 218 222 227 229 228 230 231 231 231 231 230 229 229 230 230 231 231 231 231 231 231 231 230 228 227 228 228 227 226 225 224 224 224 223 222 220
237 192 153 171 173 144 117 102 104 34 28 301 300 129 220 276 270 278 288 278 271 264 258 256 247 235 233 233 224 219 220 215 210 211 209 211 215 215 216 215 214 215 217 217 218 218 218 218 217 216 216 218 219 218 218 217 217 217 217 218 221 225 228 231 233 232 232 232 233 233 232 232 231 229 229 230 230 231 232 232 231 231 231 230 229 228 229 229 228 227 225 223 223 224 224 223 222
208 115 97 91 92 90 87 95 95 40 343 241 226 166 211 274 278 281 285 258 257 256 253 249 247 241 230 228 227 223 223 222 218 217 214 213 217 220 221 219 219 219 220 221 221 221 220 219 218 218 219 220 220 219 219 220 219 218 219 220 223 227 230 232 233 234 234 233 233 234 234 233 233 231 230 230 230 231 232 232 232 232 232 231 230 229 230 229 229 228 227 225 224 224 224 223 223
128 101 83 72 55 59 63 60 79 61 284 239 202 188 197 263 277 252 219 230 239 242 255 251 248 252 240 228 228 226 222 224 225 225 225 223 225 226 224 220 221 221 222 223 223 222 221 221 219 220 222 222 221 220 219 221 220 219 221 222 224 228 229 229 230 232 233 231 233 234 234 234 234 233 233 231 231 231 231 231 232 232 233 232 231 231 231 230 230 230 229 227 226 224 223 223 224
118 102 106 97 36 27 32 18 65 178 258 249 214 191 185 227 255 246 238 245 239 226 232 233 222 219 215 203 207 212 208 210 211 207 209 214 220 224 222 220 221 220 220 222 223 223 222 222 220 220 223 223 222 222 220 221 220 220 223 225 227 229 229 228 229 232 232 231 232 234 234 234 234 234 233 233 233 232 230 230 231 232 232 232 232 232 232 232 231 231 229 227 226 225 223 223 223
122 124 134 119 79 45 63 279 161 224 242 247 219 178 198 234 240 255 268 262 248 238 224 197 181 175 167 164 168 171 169 171 182 191 198 202 207 215 218 221 220 215 216 219 221 222 221 221 220 220 223 224 223 222 221 221 221 223 225 227 228 231 230 230 232 234 235 233 234 235 234 233 233 233 233 233 234 233 231 230 231 231 232 232 233 234 234 234 233 232 230 228 226 224 223 223 223
152 153 156 149 143 138 194 218 243 254 247 248 205 178 235 270 242 237 248 250 240 235 238 210 185 183 179 176 177 173 175 184 196 209 214 216 220 223 224 227 225 217 216 217 218 219 219 219 219 220 224 226 224 223 223 223 224 225 227 229 230 231 232 233 234 235 237 237 236 236 236 235 235 235 235 236 237 235 233 233 233 233 234 234 235 235 236 236 235 234 233 231 228 225 224 223 223
162 149 142 156 160 166 190 191 198 227 247 271 240 199 200 206 253 234 237 255 260 229 241 232 208 199 174 156 157 185 228 234 228 228 229 228 221 218 223 227 227 225 223 221 219 218 218 219 219 221 225 227 225 225 226 226 227 228 229 230 232 233 234 235 236 238 239 239 239 239 240 239 239 240 241 241 240 238 236 236 235 235 235 235 235 236 237 236 235 235 234 234 231 227 223 222 222
219 122 129 184 183 150 152 180 178 163 146 242 213 232 213 202 280 280 257 276 284 259 253 222 204 199 131 137 196 222 241 242 229 221 226 236 226 215 218 221 223 226 226 225 224 221 220 221 221 223 227 229 228 228 228 229 231 231 231 232 234 235 236 237 239 241 241 242 243 243 244 244 244 245 245 245 243 241 239 237 236 236 236 235 235 236 237 237 237 235 234 234 232 226 223 222 222
175 157 169 193 154 117 110 217 160 96 180 236 191 244 291 318 285 272 250 258 266 260 257 218 208 196 141 182 229 234 232 225 216 212 216 231 229 219 218 219 223 224 224 226 225 224 224 224 224 226 229 230 230 230 231 232 233 234 235 235 236 237 238 239 241 244 245 245 245 246 247 247 247 247 247 246 246 244 242 240 238 238 237 236 236 237 238 240 239 237 233 232 231 228 224 223 222
140 177 181 143 79 84 106 142 5 58 228 261 210 227 271 305 271 267 233 239 250 248 234 224 230 211 175 204 228 223 219 220 230 232 233 235 226 218 218 220 225 227 227 227 224 223 225 226 226 228 231 233 234 235 236 237 237 238 240 240 240 240 241 243 244 246 247 247 247 247 247 248 248 249 249 249 249 247 245 243 241 239 237 236 237 239 240 240 240 238 235 232 230 227 225 225 224
143 168 171 143 139 209 157 161 182 179 228 272 268 245 234 217 235 248 209 221 232 237 222 214 220 201 185 207 220 219 219 226 235 234 235 237 224 213 209 212 217 219 222 221 218 219 222 225 228 231 235 237 239 240 240 240 240 241 243 243 244 244 245 246 247 248 249 249 250 251 250 251 252 252 253 252 252 250 248 245 242 240 238 237 239 240 240 240 239 239 238 236 231 225 223 226 226
76 137 168 164 151 177 176 171 156 160 213 260 291 301 243 224 214 201 211 214 210 214 209 205 206 192 186 197 201 205 207 208 214 216 221 228 220 206 197 202 208 211 219 219 219 222 222 226 229 230 235 237 237 239 238 239 239 238 241 242 243 245 246 248 250 251 253 253 255 256 256 257 257 257 256 255 254 253 250 247 243 240 238 238 240 240 240 240 240 239 237 237 235 228 223 224 226
156 168 182 180 159 136 166 182 133 131 168 216 257 272 256 246 206 199 213 214 204 202 198 199 200 186 189 195 190 193 198 205 211 212 216 223 215 201 193 198 202 207 222 226 228 231 228 227 226 226 229 231 232 233 233 235 236 236 239 241 243 246 248 251 253 254 256 257 258 260 260 260 260 259 258 258 257 256 253 250 246 243 241 239 239 239 240 241 240 239 236 234 234 231 226 224 224
178 182 184 180 174 131 147 215 204 149 175 176 194 254 263 249 207 206 214 212 204 199 189 189 194 190 193 197 193 192 192 202 213 212 215 218 207 197 192 194 201 214 227 228 226 227 224 224 224 224 227 230 232 233 234 238 240 241 243 246 248 251 252 254 256 256 258 260 261 263 264 264 263 262 262 260 260 259 257 253 249 245 242 239 239 239 241 242 240 239 237 232 230 230 229 225 222